Date,TemperatureHighF,TemperatureAvgF,TemperatureLowF,DewpointHighF,DewpointAvgF,DewpointLowF,HumidityHigh,HumidityAvg,HumidityLow,PressureMaxIn,PressureMinIn,WindSpeedMaxMPH,WindSpeedAvgMPH,GustSpeedMaxMPH,PrecipitationSumIn
2013-9-1,75,66,58,63,59,55,96,79,55,30.00,29.76,12,1,13,0.01
2013-9-2,62,58,53,59,55,52,97,90,80,30.06,29.83,12,2,14,0.64
2013-9-3,74,62,53,66,59,52,99,90,71,29.83,29.62,8,0,9,0.12
2013-9-4,73,60,43,59,53,42,98,80,55,29.84,29.60,20,2,20,0.00
2013-9-5,58,48,39,44,39,33,96,74,41,30.04,29.84,14,1,15,0.00
2013-9-6,66,51,34,45,39,33,97,67,35,30.06,29.85,15,2,16,0.00
2013-9-7,66,59,52,58,53,45,97,78,67,29.85,29.65,16,2,20,0.07
2013-9-8,59,50,39,58,45,38,98,82,53,29.91,29.63,22,3,22,0.17
2013-9-9,68,53,36,46,41,35,98,68,35,30.03,29.87,18,2,18,0.01
2013-9-10,71,59,51,57,52,46,95,76,51,30.03,29.94,9,1,11,0.02
2013-9-11,76,65,58,73,63,56,99,96,81,29.98,29.78,8,0,9,0.34
2013-9-12,68,64,59,68,64,59,100,99,96,29.85,29.55,5,0,6,0.32
2013-9-13,63,61,58,63,58,53,100,89,79,29.75,29.53,14,2,15,0.01
2013-9-14,58,50,45,54,48,44,98,93,86,29.92,29.72,11,2,13,0.30
2013-9-15,64,54,44,54,49,44,100,84,57,29.96,29.85,13,1,14,0.01
2013-9-16,55,46,38,53,40,32,96,79,57,30.18,29.86,19,3,19,0.24
2013-9-17,64,48,32,45,39,31,98,73,40,30.29,30.14,12,1,14,0.00
2013-9-18,71,53,38,48,43,37,97,72,31,30.14,29.96,12,1,15,0.00
2013-9-19,75,57,42,56,49,41,98,78,38,30.02,29.92,12,1,13,0.00
2013-9-20,65,58,52,59,55,51,96,89,79,30.07,29.96,12,1,16,0.00
2013-9-21,73,63,55,57,53,48,92,73,42,29.97,29.65,20,4,24,0.00
2013-9-22,68,60,49,62,57,44,97,89,75,29.68,29.48,17,2,21,0.69
2013-9-23,49,46,43,44,43,42,95,90,84,29.78,29.66,14,4,21,0.55
2013-9-24,51,47,42,46,44,41,94,89,81,29.84,29.72,14,4,20,0.07
2013-9-25,54,49,45,48,45,42,93,86,76,29.96,29.83,16,3,16,0.02
2013-9-26,57,52,45,51,48,43,96,87,78,30.14,29.96,11,2,12,0.00
2013-9-27,68,55,44,54,48,42,98,82,51,30.25,30.13,12,1,14,0.00
2013-9-28,76,55,41,56,48,40,99,83,44,30.31,30.18,10,1,10,0.00
2013-9-29,76,55,40,55,47,39,99,79,36,30.18,30.03,8,1,9,0.01
2013-9-30,75,54,42,55,47,40,99,82,43,30.08,29.95,9,0,13,0.00